EW7512 Weather Reports


time (UTC)temp
C
wind
direction
speed
KPH
gust
KPH
rain 1hr
cm
rain 24hr
cm
rain mn
cm
humidity
%
barometer
mb
20260508065018 16 360 1.6 8.0 0.00 0.00 0.00 52 1019.8
20260508064513 16 76 3.2 9.7 0.00 0.00 0.00 51 1019.8
20260508064013 16 64 3.2 9.7 0.00 0.00 0.00 49 1019.7
20260508063511 16 119 1.6 9.7 0.00 0.00 0.00 50 1019.6
20260508063011 16 92 1.6 9.7 0.00 0.00 0.00 51 1019.7
20260508062510 16 101 3.2 9.7 0.00 0.00 0.00 51 1019.6
20260508062009 16 68 1.6 6.4 0.00 0.00 0.00 54 1019.6
20260508061509 16 360 1.6 6.4 0.00 0.00 0.00 55 1019.6
20260508061014 16 360 1.6 6.4 0.00 0.00 0.00 55 1019.5
20260508060509 16 360 0.0 6.4 0.00 0.00 0.00 56 1019.5
20260508060008 16 360 0.0 4.8 0.00 0.00 0.00 56 1019.3
20260508055508 16 360 1.6 3.2 0.00 0.00 0.00 55 1019.2
20260508055012 16 360 0.0 4.8 0.00 0.00 0.00 55 1019.1
20260508054508 16 360 1.6 4.8 0.00 0.00 0.00 54 1019.0
20260508054013 16 360 0.0 4.8 0.00 0.00 0.00 54 1018.8
20260508053507 16 360 0.0 4.8 0.00 0.00 0.00 54 1018.7
20260508053011 16 360 0.0 4.8 0.00 0.00 0.00 54 1018.6
20260508052507 16 360 0.0 3.2 0.00 0.00 0.00 53 1018.6
20260508052007 16 360 1.6 3.2 0.00 0.00 0.00 53 1018.6
20260508051506 16 140 0.0 4.8 0.00 0.00 0.00 52 1018.5
20260508051011 16 138 0.0 4.8 0.00 0.00 0.00 51 1018.5
20260508050506 16 134 0.0 9.7 0.00 0.00 0.00 51 1018.5
20260508050005 16 133 1.6 9.7 0.00 0.00 0.00 50 1018.5
20260508045507 16 150 1.6 4.8 0.00 0.00 0.00 50 1018.4
20260508045004 16 169 1.6 6.4 0.00 0.00 0.00 50 1018.4
20260508044505 16 137 1.6 6.4 0.00 0.00 0.00 50 1018.4
20260508044002 16 360 1.6 8.0 0.00 0.00 0.00 51 1018.2
20260508043502 16 134 3.2 9.7 0.00 0.00 0.00 52 1017.9
20260508043001 16 360 4.8 8.0 0.00 0.00 0.00 52 1017.7
20260508042501 16 147 4.8 9.7 0.00 0.00 0.00 52 1017.7
20260508042100 16 140 3.2 8.0 0.00 0.00 0.00 53 1017.8
20260508041559 16 131 3.2 8.0 0.00 0.00 0.00 54 1017.8
20260508041059 15 164 1.6 8.0 0.00 0.00 0.00 55 1017.7
20260508040559 15 131 1.6 6.4 0.00 0.00 0.00 55 1017.7
20260508040101 15 360 1.6 4.8 0.00 0.00 0.00 55 1017.5
20260508035559 15 360 0.0 6.4 0.00 0.00 0.00 55 1017.5
20260508035058 15 360 3.2 6.4 0.00 0.00 0.00 56 1017.5
20260508034558 15 360 1.6 4.8 0.00 0.00 0.00 56 1017.4
20260508034057 15 360 1.6 4.8 0.00 0.00 0.00 57 1017.5
20260508033557 15 97 1.6 4.8 0.00 0.00 0.00 58 1017.5
20260508033100 15 153 1.6 4.8 0.00 0.00 0.00 58 1017.5
20260508032559 15 161 0.0 1.6 0.00 0.00 0.00 58 1017.6
20260508032059 15 161 0.0 4.8 0.00 0.00 0.00 58 1017.5
20260508031559 15 161 1.6 8.0 0.00 0.00 0.00 59 1017.6
20260508031056 15 154 3.2 6.4 0.00 0.00 0.00 60 1017.5
20260508030556 15 107 1.6 4.8 0.00 0.00 0.00 59 1017.5
20260508025559 15 107 0.0 3.2 0.00 0.00 0.00 59 1017.5
20260508025055 15 106 0.0 0.0 0.00 0.00 0.00 60 1017.5
20260508024617 15 106 0.0 0.0 0.00 0.00 0.00 61 1017.6
20260508024055 15 106 0.0 3.2 0.00 0.00 0.00 62 1017.7
20260508023555 15 106 0.0 4.8 0.00 0.00 0.00 62 1017.6
20260508023055 15 98 0.0 3.2 0.00 0.00 0.00 62 1017.6
20260508022556 15 98 0.0 3.2 0.00 0.00 0.00 63 1017.6
20260508022053 15 97 0.0 3.2 0.00 0.00 0.00 63 1017.6
20260508021603 15 97 0.0 4.8 0.00 0.00 0.00 63 1017.5
20260508021053 15 98 0.0 4.8 0.00 0.00 0.00 63 1017.6
20260508020552 15 98 0.0 3.2 0.00 0.00 0.00 63 1017.6
20260508020057 15 98 0.0 3.2 0.00 0.00 0.00 63 1017.5
20260508015552 15 132 0.0 3.2 0.00 0.00 0.00 63 1017.5
20260508015052 15 134 0.0 3.2 0.00 0.00 0.00 64 1017.6
20260508014554 15 134 0.0 3.2 0.00 0.00 0.00 64 1017.6
20260508014050 15 135 0.0 4.8 0.00 0.00 0.00 64 1017.7
20260508013550 15 135 0.0 4.8 0.00 0.00 0.00 64 1017.7
20260508013051 15 122 0.0 3.2 0.00 0.00 0.00 65 1017.7
20260508012549 15 123 0.0 3.2 0.00 0.00 0.00 65 1017.8
20260508012049 15 122 0.0 4.8 0.00 0.00 0.00 66 1017.8
20260508011549 15 122 0.0 4.8 0.00 0.00 0.00 67 1017.9
20260508011047 15 118 0.0 3.2 0.00 0.00 0.00 68 1018.1
20260508010547 15 118 0.0 3.2 0.00 0.00 0.00 68 1018.1
20260508010053 15 117 0.0 3.2 0.00 0.00 0.00 68 1018.1
20260508005549 15 118 0.0 3.2 0.00 0.00 0.00 69 1018.2
20260508005046 15 118 1.6 3.2 0.00 0.00 0.00 70 1018.2
20260508004553 15 108 0.0 1.6 0.00 0.00 0.00 70 1018.1
20260508004045 15 109 0.0 3.2 0.00 0.00 0.00 70 1018.2
20260508003546 15 108 0.0 3.2 0.00 0.00 0.00 70 1018.2
20260508003045 15 109 0.0 3.2 0.00 0.00 0.00 70 1018.2
20260508002544 15 108 0.0 3.2 0.00 0.00 0.00 69 1018.3
20260508002043 15 107 0.0 3.2 0.00 0.00 0.00 69 1018.3
20260508001547 15 107 0.0 3.2 0.00 0.00 0.00 68 1018.3
20260508001042 15 107 0.0 3.2 0.00 0.00 0.00 68 1018.3
20260508000542 15 107 0.0 3.2 0.00 0.00 0.00 67 1018.4
20260508000040 15 147 0.0 4.8 0.00 0.00 0.00 67 1018.5
20260507235540 15 149 1.6 4.8 0.00 0.00 0.00 66 1018.6
20260507235040 15 89 0.0 3.2 0.00 0.00 0.00 66 1018.6
20260507234540 15 90 0.0 3.2 0.00 0.00 0.00 65 1018.6
20260507234039 15 90 0.0 1.6 0.00 0.00 0.00 65 1018.7
20260507233539 15 90 0.0 3.2 0.00 0.00 0.00 65 1018.7
20260507233039 15 90 0.0 3.2 0.00 0.00 0.00 64 1018.7
20260507232539 15 90 0.0 1.6 0.00 0.00 0.00 64 1018.7
20260507232037 15 90 0.0 3.2 0.00 0.00 0.00 64 1018.7
20260507231542 15 90 0.0 3.2 0.00 0.00 0.00 63 1018.6
20260507231036 15 90 0.0 1.6 0.00 0.00 0.00 62 1018.8
20260507230539 15 94 0.0 0.0 0.00 0.00 0.00 62 1018.8
20260507230035 15 92 0.0 3.2 0.00 0.00 0.00 61 1018.9
20260507225534 15 92 0.0 3.2 0.00 0.00 0.00 61 1019.0
20260507225034 15 92 0.0 3.2 0.00 0.00 0.00 60 1019.1
20260507224534 15 92 0.0 3.2 0.00 0.00 0.00 60 1019.1
20260507224033 15 105 0.0 3.2 0.00 0.00 0.00 59 1019.0
20260507223532 15 105 0.0 3.2 0.00 0.00 0.00 59 1019.1
20260507223034 16 105 0.0 3.2 0.00 0.00 0.00 58 1019.0
20260507222530 16 104 0.0 4.8 0.00 0.00 0.00 57 1019.1
20260507222029 16 104 0.0 4.8 0.00 0.00 0.00 57 1019.2
20260507221533 16 109 0.0 3.2 0.00 0.00 0.00 56 1019.2
20260507221032 16 117 1.6 3.2 0.00 0.00 0.00 55 1019.2
20260507220531 16 117 0.0 4.8 0.00 0.00 0.00 54 1019.2
20260507220026 16 117 1.6 4.8 0.00 0.00 0.00 54 1019.3
20260507215526 16 131 1.6 4.8 0.00 0.00 0.00 53 1019.4
20260507215025 16 140 1.6 6.4 0.00 0.00 0.00 52 1019.3
20260507214524 16 150 0.0 9.7 0.00 0.00 0.00 50 1019.4
20260507214024 16 124 3.2 9.7 0.00 0.00 0.00 49 1019.4
20260507213523 16 161 1.6 4.8 0.00 0.00 0.00 48 1019.4
20260507213028 16 140 1.6 4.8 0.00 0.00 0.00 48 1019.4
20260507212521 16 114 1.6 4.8 0.00 0.00 0.00 47 1019.4
20260507212021 16 115 1.6 4.8 0.00 0.00 0.00 46 1019.5
20260507211520 17 55 0.0 3.2 0.00 0.00 0.00 45 1019.5
20260507211022 17 56 0.0 4.8 0.00 0.00 0.00 44 1019.4
20260507210522 17 69 0.0 4.8 0.00 0.00 0.00 44 1019.3
20260507210017 17 69 1.6 6.4 0.00 0.00 0.00 44 1019.3
20260507205517 17 86 0.0 6.4 0.00 0.00 0.00 44 1019.3
20260507205018 17 90 0.0 6.4 0.00 0.00 0.00 43 1019.3
20260507204517 17 88 0.0 3.2 0.00 0.00 0.00 45 1019.4
20260507204017 17 89 0.0 4.8 0.00 0.00 0.00 45 1019.4
20260507203520 16 92 0.0 4.8 0.00 0.00 0.00 45 1019.4
20260507203032 16 78 1.6 4.8 0.00 0.00 0.00 46 1019.4
20260507202518 17 80 0.0 3.2 0.00 0.00 0.00 46 1019.4
20260507202016 17 80 0.0 3.2 0.00 0.00 0.00 47 1019.5
20260507201517 17 79 0.0 4.8 0.00 0.00 0.00 46 1019.5
20260507201016 17 79 1.6 4.8 0.00 0.00 0.00 46 1019.4
20260507200519 17 80 1.6 6.4 0.00 0.00 0.00 47 1019.4
20260507200016 17 81 0.0 6.4 0.00 0.00 0.00 47 1019.4
20260507195515 17 51 0.0 6.4 0.00 0.00 0.00 48 1019.4
20260507195016 17 27 1.6 6.4 0.00 0.00 0.00 48 1019.5
20260507194522 17 77 0.0 6.4 0.00 0.00 0.00 48 1019.5
20260507194019 17 82 1.6 6.4 0.00 0.00 0.00 49 1019.5
20260507193515 17 78 1.6 6.4 0.00 0.00 0.00 50 1019.5
20260507193018 17 103 0.0 4.8 0.00 0.00 0.00 50 1019.5
20260507192516 17 95 0.0 4.8 0.00 0.00 0.00 51 1019.5
20260507192015 17 94 0.0 4.8 0.00 0.00 0.00 52 1019.5
20260507191519 17 94 1.6 4.8 0.00 0.00 0.00 52 1019.4
20260507191017 17 90 0.0 3.2 0.00 0.00 0.00 53 1019.4
20260507190514 17 95 0.0 3.2 0.00 0.00 0.00 53 1019.4
20260507190016 17 94 1.6 3.2 0.00 0.00 0.00 53 1019.4
20260507185513 17 94 0.0 3.2 0.00 0.00 0.00 53 1019.4
20260507185013 17 93 0.0 6.4 0.00 0.00 0.00 52 1019.5
20260507184520 17 71 0.0 3.2 0.00 0.00 0.00 51 1019.4
20260507184014 17 72 0.0 3.2 0.00 0.00 0.00 51 1019.3
20260507183513 17 72 0.0 3.2 0.00 0.00 0.00 50 1019.3
20260507183014 17 72 0.0 3.2 0.00 0.00 0.00 49 1019.3
20260507182513 17 74 0.0 4.8 0.00 0.00 0.00 48 1019.3
20260507182013 17 74 1.6 4.8 0.00 0.00 0.00 47 1019.1
20260507181512 17 98 0.0 4.8 0.00 0.00 0.00 46 1019.2
20260507181018 17 97 0.0 4.8 0.00 0.00 0.00 44 1019.2
20260507180512 17 130 1.6 4.8 0.00 0.00 0.00 43 1019.2
20260507180017 17 142 1.6 4.8 0.00 0.00 0.00 43 1019.3
20260507175514 17 176 0.0 6.4 0.00 0.00 0.00 42 1019.2
20260507175014 17 47 1.6 6.4 0.00 0.00 0.00 43 1019.1
20260507174520 17 63 1.6 6.4 0.00 0.00 0.00 43 1019.1
20260507174015 17 57 1.6 6.4 0.00 0.00 0.00 43 1019.0
20260507173512 17 140 0.0 3.2 0.00 0.00 0.00 44 1019.1
20260507173025 18 168 0.0 1.6 0.00 0.00 0.00 42 1019.2
20260507172512 18 167 0.0 4.8 0.00 0.00 0.00 43 1019.1
20260507172010 18 167 1.6 6.4 0.00 0.00 0.00 44 1019.2
20260507171520 18 96 0.0 0.0 0.00 0.00 0.00 45 1019.1
20260507171011 18 94 0.0 0.0 0.00 0.00 0.00 45 1018.9
20260507170511 18 94 0.0 0.0 0.00 0.00 0.00 45 1018.8
20260507170010 18 360 0.0 0.0 0.00 0.00 0.00 45 1018.7
20260507165514 18 360 0.0 0.0 0.00 0.00 0.00 45 1018.7
20260507165010 18 360 0.0 0.0 0.00 0.00 0.00 45 1018.8
20260507164513 18 360 0.0 0.0 0.00 0.00 0.00 46 1018.7
20260507164010 18 360 0.0 0.0 0.00 0.00 0.00 45 1018.8
20260507163514 18 360 0.0 1.6 0.00 0.00 0.00 45 1018.8
20260507163010 19 86 0.0 3.2 0.00 0.00 0.00 43 1019.0
20260507162515 19 87 0.0 3.2 0.00 0.00 0.00 43 1019.0
20260507162010 19 86 0.0 1.6 0.00 0.00 0.00 43 1018.9
20260507161509 19 360 0.0 4.8 0.00 0.00 0.00 43 1018.9
20260507161009 19 86 1.6 4.8 0.00 0.00 0.00 42 1019.0
20260507160509 19 360 0.0 4.8 0.00 0.00 0.00 42 1019.0
20260507160011 20 80 0.0 6.4 0.00 0.00 0.00 41 1019.0
20260507155515 20 80 1.6 6.4 0.00 0.00 0.00 40 1019.0
20260507155011 20 41 1.6 8.0 0.00 0.00 0.00 40 1018.9
20260507154508 20 76 1.6 8.0 0.00 0.00 0.00 38 1018.9
20260507154011 20 20 3.2 6.4 0.00 0.00 0.00 37 1019.0
20260507153508 20 76 3.2 8.0 0.00 0.00 0.00 36 1019.2
20260507153008 21 96 1.6 6.4 0.00 0.00 0.00 35 1019.2
20260507152508 21 66 3.2 9.7 0.00 0.00 0.00 36 1019.2
20260507152013 21 84 1.6 9.7 0.00 0.00 0.00 35 1019.1
20260507151508 21 67 1.6 11.3 0.00 0.00 0.00 33 1019.1
20260507151008 21 59 3.2 11.3 0.00 0.00 0.00 33 1019.1
20260507150509 21 16 1.6 8.0 0.00 0.00 0.00 34 1019.1
20260507150007 21 69 3.2 8.0 0.00 0.00 0.00 34 1019.2
20260507145507 21 78 1.6 11.3 0.00 0.00 0.00 34 1019.1
20260507145012 21 138 3.2 12.9 0.00 0.00 0.00 34 1019.1
20260507144506 21 80 4.8 12.9 0.00 0.00 0.00 33 1019.1
20260507144006 21 74 3.2 9.7 0.00 0.00 0.00 34 1019.1
20260507143510 22 71 1.6 6.4 0.00 0.00 0.00 34 1019.2
20260507143006 22 50 1.6 14.5 0.00 0.00 0.00 33 1019.1
20260507142506 22 314 4.8 14.5 0.00 0.00 0.00 31 1019.1
20260507142007 22 86 3.2 8.0 0.00 0.00 0.00 34 1019.1
20260507141504 22 80 1.6 12.9 0.00 0.00 0.00 34 1018.9
20260507141004 22 29 3.2 12.9 0.00 0.00 0.00 35 1018.8
20260507140504 22 126 3.2 11.3 0.00 0.00 0.00 34 1018.8
20260507140004 22 136 1.6 12.9 0.00 0.00 0.00 34 1018.7
20260507135503 22 35 1.6 8.0 0.00 0.00 0.00 38 1018.6
20260507135004 23 171 1.6 9.7 0.00 0.00 0.00 40 1018.7
20260507134504 22 105 1.6 9.7 0.00 0.00 0.00 39 1018.7
20260507134003 22 92 3.2 9.7 0.00 0.00 0.00 44 1018.7
20260507133503 22 90 3.2 9.7 0.00 0.00 0.00 44 1018.5
20260507133002 22 87 1.6 8.0 0.00 0.00 0.00 47 1018.5
20260507132503 22 45 1.6 8.0 0.00 0.00 0.00 46 1018.6
20260507132002 22 69 1.6 8.0 0.00 0.00 0.00 44 1018.5
20260507131502 22 67 1.6 6.4 0.00 0.00 0.00 45 1018.5
20260507131002 22 360 1.6 8.0 0.00 0.00 0.00 45 1018.6
20260507130503 22 50 1.6 8.0 0.00 0.00 0.00 43 1018.6
20260507130002 22 54 1.6 6.4 0.00 0.00 0.00 41 1018.8
20260507125502 22 282 1.6 6.4 0.00 0.00 0.00 41 1018.9
20260507125002 22 83 1.6 17.7 0.00 0.00 0.00 39 1019.0
20260507124501 23 347 3.2 17.7 0.00 0.00 0.00 40 1019.0
20260507124002 23 103 3.2 11.3 0.00 0.00 0.00 39 1019.0
20260507123501 23 71 3.2 11.3 0.00 0.00 0.00 39 1019.1
20260507123002 23 161 3.2 11.3 0.00 0.00 0.00 38 1019.2
20260507122500 23 83 1.6 9.7 0.00 0.00 0.00 37 1019.2
20260507122101 24 110 3.2 9.7 0.00 0.00 0.00 36 1019.1
20260507121603 24 61 3.2 9.7 0.00 0.00 0.00 36 1019.1
20260507121100 23 42 3.2 12.9 0.00 0.00 0.00 35 1019.2
20260507120559 24 144 1.6 12.9 0.00 0.00 0.00 33 1019.2
20260507120105 24 63 4.8 12.9 0.00 0.00 0.00 33 1019.1
20260507115558 25 51 3.2 8.0 0.00 0.00 0.00 36 1019.1
20260507115057 25 88 3.2 16.1 0.00 0.00 0.00 37 1019.1
20260507114610 24 67 3.2 8.0 0.00 0.00 0.00 39 1019.2
20260507114057 24 65 3.2 9.7 0.00 0.00 0.00 39 1019.2
20260507113558 24 68 4.8 9.7 0.00 0.00 0.00 40 1019.2
20260507113057 24 137 3.2 11.3 0.00 0.00 0.00 39 1019.2
20260507112557 24 100 3.2 14.5 0.00 0.00 0.00 37 1019.3
20260507112059 24 30 4.8 12.9 0.00 0.00 0.00 39 1019.4
20260507111555 25 51 4.8 12.9 0.00 0.00 0.00 40 1019.3
20260507111053 24 52 3.2 12.9 0.00 0.00 0.00 38 1019.2
20260507110558 25 72 3.2 12.9 0.00 0.00 0.00 40 1019.1
20260507110054 25 80 3.2 8.0 0.00 0.00 0.00 41 1019.1
20260507105553 25 92 3.2 12.9 0.00 0.00 0.00 41 1019.1
20260507105052 25 102 4.8 9.7 0.00 0.00 0.00 43 1019.2
20260507104553 25 67 3.2 9.7 0.00 0.00 0.00 44 1019.0
20260507104051 25 126 3.2 6.4 0.00 0.00 0.00 46 1019.0
20260507103551 24 90 1.6 14.5 0.00 0.00 0.00 45 1018.9
20260507103055 24 131 3.2 14.5 0.00 0.00 0.00 43 1018.9
20260507102551 24 195 3.2 12.9 0.00 0.00 0.00 45 1019.0
20260507102050 23 62 3.2 14.5 0.00 0.00 0.00 45 1018.9
20260507101550 23 184 6.4 14.5 0.00 0.00 0.00 43 1019.1
20260507101052 24 188 3.2 14.5 0.00 0.00 0.00 42 1019.0
20260507100554 24 257 3.2 14.5 0.00 0.00 0.00 41 1019.1
20260507100052 24 259 4.8 12.9 0.00 0.00 0.00 42 1019.1
20260507095552 24 90 3.2 8.0 0.00 0.00 0.00 40 1019.0
20260507095049 25 173 1.6 8.0 0.00 0.00 0.00 42 1019.1
20260507094557 24 67 1.6 11.3 0.00 0.00 0.00 42 1019.0
20260507094046 24 47 3.2 11.3 0.00 0.00 0.00 43 1019.0
20260507093546 24 88 3.2 11.3 0.00 0.00 0.00 44 1019.0
20260507093046 24 114 3.2 9.7 0.00 0.00 0.00 45 1018.9
20260507092545 23 83 3.2 9.7 0.00 0.00 0.00 45 1019.0
20260507092045 23 78 3.2 8.0 0.00 0.00 0.00 49 1019.0
20260507091544 23 65 3.2 12.9 0.00 0.00 0.00 51 1019.0
20260507091043 23 96 3.2 12.9 0.00 0.00 0.00 52 1018.8
20260507090543 23 317 3.2 9.7 0.00 0.00 0.00 49 1018.8
20260507090044 23 97 1.6 6.4 0.00 0.00 0.00 58 1019.0
20260507085542 22 80 0.0 6.4 0.00 0.00 0.00 62 1018.9
20260507085042 22 119 3.2 6.4 0.00 0.00 0.00 60 1019.0
20260507084543 22 146 1.6 6.4 0.00 0.00 0.00 60 1019.1
20260507084041 23 121 1.6 6.4 0.00 0.00 0.00 58 1019.1
20260507083541 23 319 3.2 11.3 0.00 0.00 0.00 51 1019.1
20260507083040 23 121 1.6 12.9 0.00 0.00 0.00 42 1019.0
20260507082539 23 170 6.4 12.9 0.00 0.00 0.00 42 1019.0
20260507082042 23 54 1.6 8.0 0.00 0.00 0.00 43 1019.0
20260507081541 23 80 3.2 9.7 0.00 0.00 0.00 43 1018.9
20260507081037 23 24 3.2 9.7 0.00 0.00 0.00 43 1018.9
20260507080537 23 40 3.2 8.0 0.00 0.00 0.00 45 1019.0
20260507080038 22 119 0.0 6.4 0.00 0.00 0.00 47 1019.0
20260507075535 22 73 3.2 6.4 0.00 0.00 0.00 54 1019.0
20260507075035 21 159 1.6 11.3 0.00 0.00 0.00 56 1018.9
20260507074535 21 127 3.2 16.1 0.00 0.00 0.00 55 1018.9
20260507074034 23 128 6.4 16.1 0.00 0.00 0.00 49 1018.7
20260507073534 23 317 1.6 6.4 0.00 0.00 0.00 41 1018.5
20260507073033 23 21 0.0 6.4 0.00 0.00 0.00 44 1018.6
20260507072532 23 9 3.2 8.0 0.00 0.00 0.00 44 1018.6
20260507072030 22 103 3.2 8.0 0.00 0.00 0.00 42 1018.6
20260507071530 22 87 3.2 8.0 0.00 0.00 0.00 41 1018.6
20260507071029 22 35 3.2 6.4 0.00 0.00 0.00 42 1018.8
20260507070529 22 159 1.6 6.4 0.00 0.00 0.00 45 1018.8
20260507070040 22 100 0.0 6.4 0.00 0.00 0.00 45 1018.8
20260507065526 22 349 0.0 6.4 0.00 0.00 0.00 48 1018.8